Temp
14 11 11 12 12 14 14 13 15 15 15 14 12 12 13 14 12 12 14 14 14 14 14 13 13 13 13 13 13 13 13 11 8 9 9 9 9 10 9 9 8 9 9 9
11 11 12 12 12 13 13 13 12 12 14 12 13 12 12 12 13 14 15 15 15 14 13 12 12 13 13 13 12 11 11 8 8 8 8 9 9 9 9 9 8 9 9 9
11 14 13 13 12 12 12 11 12 14 14 13 12 10 12 13 14 16 16 17 16 16 14 12 12 12 12 12 11 10 9 7 8 8 8 9 9 8 8 8 8 8 8 9
11 13 13 12 12 12 12 12 14 14 13 11 12 11 12 12 12 11 15 15 16 14 13 13 12 12 12 12 10 8 8 7 8 8 8 9 9 9 8 8 8 8 8 9
12 11 11 12 12 12 13 13 13 13 11 11 11 9 10 12 12 12 15 15 16 15 15 14 13 13 12 10 10 8 7 7 7 7 8 8 8 8 8 8 8 8 8 8
12 13 12 13 12 13 11 12 10 8 9 8 11 10 10 12 15 13 15 16 17 16 14 12 13 12 11 9 8 7 6 6 6 6 6 7 8 8 8 8 8 8 7 7
11 12 12 12 12 12 12 11 9 9 7 10 10 9 14 13 12 14 15 18 16 15 13 11 11 11 10 9 8 7 5 5 5 6 6 7 7 8 9 9 9 8 7 7
12 11 11 10 13 11 10 11 9 10 8 9 9 8 11 11 15 14 15 15 14 12 11 10 11 11 10 9 8 7 6 4 5 6 7 7 7 8 9 9 8 7 7 6
11 11 11 10 12 14 10 10 12 10 -0 5 9 9 11 10 10 11 13 12 10 12 11 10 10 10 10 10 9 8 7 6 6 7 7 7 7 8 8 7 7 6 6 5
12 11 9 10 12 11 11 10 10 7 7 7 9 9 12 12 11 11 10 8 10 10 9 9 10 10 10 9 8 7 7 7 7 7 7 7 7 7 7 7 6 6 5 5
12 11 9 9 9 9 9 9 10 10 7 8 7 11 9 13 11 11 10 13 11 10 11 10 10 10 9 8 7 7 6 6 6 7 7 7 7 7 6 6 6 5 5 4
11 11 6 8 9 8 10 11 9 8 8 6 6 13 11 11 11 11 13 15 13 11 11 10 10 9 8 8 7 7 6 6 6 7 7 7 7 6 6 5 5 5 4 4
11 9 7 7 8 8 8 9 12 9 5 8 9 14 8 8 11 13 13 15 11 10 9 9 9 8 8 8 7 6 6 6 6 6 6 6 6 6 5 5 5 4 4 3
13 9 10 12 12 9 8 8 8 11 11 11 12 14 11 12 11 11 12 13 12 10 9 9 9 8 8 7 7 6 6 6 5 5 5 5 6 5 5 5 4 4 3 2
11 9 9 12 11 10 9 9 9 10 12 12 14 12 15 13 10 12 15 14 11 10 9 9 9 8 8 7 7 6 6 6 5 5 5 5 5 5 4 4 4 3 2 2
8 9 10 10 11 9 9 8 10 10 11 12 12 13 12 14 15 11 13 14 11 13 14 13 9 8 9 8 7 6 6 6 5 5 5 5 4 4 4 3 3 2 2 1
9 8 8 9 10 7 7 9 9 10 11 11 10 13 10 12 11 11 13 13 13 14 15 14 13 11 9 9 8 7 6 5 5 4 4 4 4 3 3 2 2 2 1 1
5 8 8 9 8 9 10 11 11 11 10 10 10 11 7 11 12 13 12 13 14 14 14 14 13 10 8 7 7 6 6 6 4 3 3 3 3 2 2 2 2 1 1 0
7 7 7 8 9 10 9 6 8 8 10 11 11 11 11 12 9 10 12 13 13 13 14 13 13 10 8 7 6 5 5 5 4 4 3 3 3 1 2 2 1 1 0 -0
6 7 6 6 8 9 9 6 8 7 10 9 9 10 10 8 7 10 12 11 11 12 13 12 10 8 8 7 6 5 5 5 5 4 4 3 -0 -1 1 1 1 0 -1 -1
6 7 7 7 8 7 3 1 8 8 10 1 5 5 6 5 9 8 10 11 11 11 11 10 8 9 8 7 6 5 6 6 6 4 3 2 0 -0 0 0 0 0 -0 -2
5 7 7 7 8 8 4 4 7 6 4 5 5 6 6 6 7 8 9 10 10 9 8 8 7 7 7 7 6 6 6 5 4 3 2 1 1 0 0 0 -0 -1 -2 -2
5 5 5 5 6 3 4 5 7 7 7 6 7 7 7 6 7 8 7 7 7 7 7 7 7 7 6 6 5 4 3 3 2 1 1 1 0 0 -0 -0 -1 -1 -2 -2
1 1 3 3 2 2 2 3 3 4 5 6 6 6 6 6 6 6 6 6 7 6 6 6 6 5 4 3 3 2 2 2 2 2 2 1 1 1 0 -0 -1 -1 -1 -2
2 2 2 2 1 0 2 3 4 4 4 5 5 6 5 6 6 6 6 5 5 5 5 4 4 3 3 3 3 2 2 2 2 2 1 1 1 0 -0 -0 -1 -1 -1 -2
0 2 3 3 3 4 4 5 4 4 4 4 6 5 5 5 5 5 5 4 4 4 3 3 3 3 3 3 3 2 2 2 1 1 1 0 0 -0 -1 -1 -1 -2 -2 -3
Height
1538 1544 1547 1540 1540 1540 1544 1548 1546 1541 1536 1541 1541 1537 1529 1531 1533 1531 1529 1528 1527 1527 1531 1534 1535 1536 1537 1538 1540 1541 1543 1544 1547 1550 1554 1558 1561 1563 1565 1567 1569 1571 1573 1574
1542 1543 1531 1535 1538 1541 1543 1546 1549 1541 1534 1539 1536 1535 1528 1526 1523 1521 1519 1518 1517 1520 1523 1525 1527 1530 1532 1534 1536 1537 1539 1542 1545 1548 1551 1555 1559 1561 1564 1566 1568 1569 1571 1572
1536 1528 1524 1532 1538 1542 1542 1545 1544 1542 1536 1535 1536 1536 1526 1516 1514 1512 1510 1507 1509 1508 1511 1515 1519 1522 1526 1528 1531 1534 1536 1540 1543 1546 1548 1552 1556 1559 1561 1563 1566 1568 1570 1571
1530 1523 1526 1532 1534 1536 1544 1533 1534 1537 1541 1551 1536 1537 1521 1514 1509 1504 1498 1498 1495 1498 1503 1509 1513 1516 1519 1522 1527 1530 1534 1537 1541 1544 1547 1550 1552 1555 1558 1561 1564 1566 1569 1570
1518 1519 1525 1527 1525 1528 1532 1528 1532 1534 1541 1542 1540 1549 1517 1507 1508 1499 1487 1485 1487 1488 1491 1496 1501 1507 1513 1518 1521 1525 1531 1534 1538 1542 1545 1547 1550 1553 1556 1559 1561 1564 1567 1569
1513 1512 1513 1513 1517 1520 1524 1530 1538 1544 1547 1554 1533 1537 1513 1506 1492 1487 1477 1476 1478 1479 1481 1488 1496 1503 1508 1513 1517 1521 1526 1530 1535 1539 1542 1545 1547 1549 1551 1555 1558 1561 1564 1566
1514 1512 1509 1510 1518 1521 1524 1534 1556 1558 1562 1536 1524 1529 1489 1486 1481 1475 1471 1468 1470 1472 1475 1479 1487 1493 1500 1504 1509 1515 1520 1524 1529 1534 1538 1541 1544 1547 1550 1552 1555 1558 1561 1564
1512 1518 1506 1502 1502 1515 1523 1524 1543 1551 1551 1535 1527 1517 1488 1474 1469 1468 1467 1465 1467 1469 1471 1475 1481 1487 1493 1498 1503 1508 1512 1518 1524 1529 1533 1537 1541 1545 1549 1552 1554 1557 1560 1563
1506 1504 1494 1495 1498 1501 1520 1521 1514 1529 1569 1552 1513 1494 1478 1471 1469 1464 1460 1461 1462 1466 1467 1470 1476 1482 1488 1493 1497 1502 1507 1513 1519 1524 1529 1533 1537 1541 1545 1549 1553 1556 1559 1561
1489 1501 1498 1496 1497 1500 1502 1506 1528 1538 1545 1544 1508 1500 1479 1469 1468 1460 1458 1458 1459 1462 1464 1467 1472 1478 1484 1489 1494 1499 1504 1508 1514 1520 1525 1529 1533 1538 1542 1546 1549 1553 1555 1558
1484 1490 1501 1497 1496 1495 1504 1506 1507 1510 1521 1523 1522 1481 1460 1456 1456 1456 1453 1452 1455 1457 1459 1464 1470 1475 1481 1485 1489 1494 1499 1504 1509 1515 1520 1525 1529 1534 1538 1542 1546 1550 1553 1555
1477 1483 1504 1494 1488 1489 1487 1489 1498 1508 1512 1514 1510 1448 1447 1449 1449 1450 1450 1449 1449 1451 1455 1461 1466 1471 1475 1480 1484 1488 1493 1498 1505 1511 1516 1521 1525 1529 1533 1538 1542 1546 1549 1552
1472 1483 1501 1495 1492 1490 1489 1487 1482 1490 1500 1490 1495 1434 1448 1447 1446 1447 1446 1446 1448 1450 1453 1458 1461 1464 1469 1474 1478 1482 1488 1494 1500 1506 1511 1516 1520 1523 1528 1533 1537 1541 1544 1547
1460 1472 1470 1463 1461 1470 1483 1481 1480 1478 1481 1465 1457 1437 1447 1444 1444 1442 1442 1443 1445 1447 1449 1453 1456 1458 1463 1468 1472 1478 1483 1489 1495 1501 1507 1510 1514 1519 1524 1528 1532 1536 1539 1541
1455 1465 1464 1447 1454 1458 1459 1464 1467 1468 1447 1464 1419 1444 1424 1436 1440 1437 1440 1441 1441 1443 1445 1445 1448 1452 1456 1461 1466 1472 1478 1483 1490 1495 1500 1505 1510 1516 1520 1523 1526 1531 1534 1537
1453 1452 1457 1449 1448 1456 1456 1456 1445 1444 1443 1449 1434 1426 1429 1429 1429 1430 1431 1433 1434 1435 1436 1437 1440 1444 1446 1451 1457 1463 1469 1475 1482 1487 1493 1498 1505 1510 1514 1519 1522 1525 1529 1532
1447 1453 1457 1445 1443 1459 1460 1420 1438 1440 1433 1434 1439 1398 1424 1423 1424 1422 1421 1423 1424 1427 1429 1429 1430 1431 1436 1440 1446 1453 1461 1469 1475 1480 1488 1494 1500 1505 1509 1513 1516 1519 1522 1527
1442 1441 1443 1436 1447 1438 1403 1409 1414 1421 1420 1425 1421 1402 1414 1413 1412 1410 1414 1417 1416 1418 1420 1423 1424 1427 1430 1436 1443 1449 1455 1462 1470 1477 1483 1489 1494 1500 1504 1507 1511 1514 1518 1521
1428 1434 1434 1429 1422 1414 1404 1403 1408 1416 1402 1403 1409 1402 1403 1407 1410 1397 1407 1405 1406 1410 1412 1413 1416 1419 1424 1431 1437 1443 1449 1457 1465 1470 1475 1482 1488 1493 1497 1500 1504 1509 1513 1516
1417 1419 1424 1428 1414 1406 1389 1396 1395 1405 1406 1389 1398 1392 1395 1404 1412 1382 1396 1397 1399 1401 1403 1405 1409 1413 1420 1425 1432 1439 1445 1450 1455 1461 1468 1475 1481 1484 1489 1495 1499 1504 1506 1508
1409 1405 1404 1407 1401 1400 1397 1397 1397 1407 1389 1387 1389 1389 1392 1397 1393 1391 1391 1392 1393 1394 1397 1401 1405 1410 1415 1422 1429 1435 1439 1444 1451 1456 1461 1466 1472 1477 1484 1490 1494 1497 1500 1502
1405 1396 1391 1396 1392 1388 1389 1396 1393 1385 1384 1386 1387 1388 1386 1387 1389 1388 1389 1390 1390 1392 1394 1399 1405 1411 1416 1422 1428 1434 1437 1442 1446 1452 1456 1462 1466 1472 1477 1482 1486 1490 1493 1495
1401 1393 1394 1394 1386 1382 1381 1381 1381 1383 1382 1383 1385 1386 1385 1384 1386 1386 1387 1389 1390 1393 1398 1402 1408 1413 1417 1423 1428 1433 1437 1440 1444 1448 1453 1459 1462 1466 1471 1476 1479 1483 1486 1488
1390 1386 1386 1390 1386 1385 1383 1381 1382 1384 1384 1383 1385 1385 1385 1385 1387 1387 1388 1390 1393 1395 1399 1404 1409 1413 1417 1423 1428 1433 1437 1440 1444 1449 1452 1456 1459 1463 1467 1470 1474 1478 1481 1483
1380 1380 1380 1380 1379 1382 1379 1378 1380 1381 1384 1384 1385 1385 1386 1386 1386 1387 1389 1392 1394 1398 1402 1407 1411 1415 1419 1423 1428 1432 1436 1440 1444 1448 1452 1455 1457 1460 1463 1466 1469 1472 1474 1476
1372 1370 1371 1369 1366 1369 1370 1369 1375 1378 1382 1384 1384 1386 1387 1388 1388 1388 1389 1393 1396 1400 1404 1409 1414 1418 1421 1424 1428 1432 1435 1438 1442 1446 1448 1452 1454 1456 1458 1461 1463 1466 1468 1469
Wind_Speed
4 4 7 13 9 4 4 4 4 4 4 6 8 9 11 18 22 26 28 31 34 34 30 28 27 25 23 21 20 20 22 25 27 28 26 25 24 23 21 20 18 18 15 13
4 8 11 5 5 6 5 5 7 6 4 7 6 11 11 7 16 31 37 38 40 37 35 34 32 29 26 23 21 21 22 24 27 26 28 26 24 23 21 20 20 18 15 15
8 6 6 8 5 6 6 7 5 8 2 3 3 6 9 11 25 30 35 42 41 45 43 40 37 33 29 27 25 24 24 27 29 29 29 28 26 25 24 23 22 19 18 17
6 6 5 5 6 8 7 7 6 5 2 5 3 7 5 6 11 10 34 38 46 44 43 42 39 35 33 30 26 25 28 29 29 29 29 27 29 28 26 25 23 23 21 18
9 8 9 7 7 10 7 4 5 3 3 2 3 5 6 4 8 12 26 34 38 43 47 47 46 39 34 31 30 30 30 30 30 29 29 29 28 28 27 27 27 25 22 18
5 2 8 9 3 8 6 5 6 4 3 4 10 8 5 6 14 9 24 29 33 38 43 45 45 39 35 33 32 32 32 31 31 30 30 30 29 31 32 32 29 25 22 19
3 4 3 5 5 3 5 7 2 3 1 8 3 6 14 7 11 14 17 29 22 28 38 43 47 44 39 39 38 37 36 35 34 33 33 32 31 31 32 31 28 25 23 20
11 7 11 7 11 7 8 9 6 7 5 5 0 7 6 13 22 20 26 28 20 23 32 39 47 45 42 40 39 40 39 37 36 36 34 33 33 33 31 27 25 23 20 17
7 7 1 0 4 13 7 9 5 2 2 1 6 8 7 10 9 17 28 19 17 23 31 37 45 44 41 39 40 41 40 37 37 37 37 36 35 34 30 27 24 21 19 17
5 3 1 1 5 3 6 8 2 1 2 6 5 6 9 4 12 13 14 12 19 23 30 36 43 43 39 38 39 40 40 39 39 39 39 38 36 34 30 28 26 23 20 17
5 5 1 3 7 11 4 5 4 5 6 5 3 7 7 13 11 12 13 27 24 25 31 36 40 40 37 38 41 41 42 42 42 42 41 39 37 35 32 29 26 23 20 18
9 3 5 9 3 3 1 4 6 5 6 5 3 17 6 6 5 11 15 17 20 26 29 34 38 38 39 40 41 44 44 45 44 43 41 39 37 36 34 30 27 24 22 20
10 5 1 5 3 2 5 7 15 2 3 10 6 15 2 5 5 9 15 16 18 22 26 31 36 40 40 41 43 45 46 46 45 44 42 41 39 37 35 31 29 26 24 22
19 6 11 18 4 8 7 9 12 18 10 10 20 20 6 6 6 9 14 13 16 20 25 29 35 39 41 42 45 47 48 48 46 44 43 42 40 37 34 31 30 28 26 24
14 14 9 23 8 9 10 13 21 23 33 12 34 19 21 13 11 17 18 15 17 21 25 31 36 39 42 44 46 48 49 49 48 46 45 43 40 36 34 33 32 29 27 26
1 14 16 25 18 9 6 11 25 30 29 27 30 31 6 12 20 15 28 27 25 28 30 32 35 38 42 46 49 52 52 51 49 48 47 44 40 38 36 35 32 30 28 27
18 12 13 22 15 4 6 35 11 15 22 23 23 37 7 15 14 22 29 31 34 35 35 38 40 41 42 45 49 53 53 51 50 50 46 43 40 39 36 35 33 32 30 30
6 19 13 16 6 15 24 15 25 27 23 18 20 28 8 18 33 38 31 34 38 38 38 38 39 41 41 42 43 46 49 50 49 46 44 42 41 38 36 36 35 32 30 30
14 10 6 8 15 10 12 5 8 12 29 29 25 28 30 35 20 35 37 43 40 38 37 38 38 37 37 37 38 41 42 43 41 44 44 42 40 38 38 40 37 31 30 27
20 19 12 4 10 12 9 4 11 6 17 12 22 28 25 9 9 21 26 29 33 31 27 28 31 30 29 30 30 31 32 32 34 36 38 38 39 40 41 38 35 30 28 30
9 15 20 18 12 5 4 5 13 11 8 2 2 3 7 8 15 11 9 14 17 21 23 21 22 24 23 23 26 28 26 25 19 24 28 31 33 35 37 35 32 30 31 30
5 7 11 10 12 18 11 3 11 4 3 1 2 4 6 14 20 20 16 15 15 16 18 20 22 24 24 24 25 27 24 21 21 20 21 23 25 28 29 29 29 28 27 28
4 7 2 4 2 3 18 1 10 5 5 3 4 7 4 4 7 9 11 13 16 17 20 20 22 22 20 21 23 22 18 17 17 17 17 18 20 22 23 25 25 26 26 27
5 5 5 3 3 4 8 13 10 6 5 7 4 2 3 4 6 8 14 17 19 19 18 19 21 20 21 19 17 13 14 15 15 16 18 19 20 21 22 23 23 24 25 26
3 10 7 4 4 2 16 20 14 10 8 5 3 2 4 6 8 9 13 15 15 16 17 17 17 18 19 19 19 18 17 16 16 16 16 17 18 20 21 23 23 23 24 25
5 5 5 4 4 4 4 23 23 18 11 5 0 2 6 7 8 11 13 14 16 18 19 20 20 20 20 18 16 15 14 15 15 16 17 18 19 21 23 24 25 25 26 27
Wind_Direction
168 116 203 205 198 175 162 195 235 257 222 168 226 252 261 220 220 232 232 232 232 234 232 224 224 223 221 219 217 215 208 196 189 184 187 192 193 195 194 195 197 192 195 195
55 228 229 187 205 215 234 248 260 273 242 181 248 245 257 208 226 231 235 237 237 233 225 221 221 221 221 221 216 211 202 194 186 189 187 191 192 191 194 198 193 193 193 185
175 214 172 170 181 191 234 212 228 234 338 261 325 272 245 254 241 247 248 250 247 238 226 218 217 219 217 216 213 207 198 191 190 191 190 191 194 194 194 192 192 185 178 171
226 228 156 170 198 172 238 207 199 210 130 243 155 281 263 241 246 229 248 244 244 238 231 224 219 218 218 214 207 204 198 194 194 196 197 199 200 196 193 191 184 174 169 169
225 183 186 189 192 168 229 168 196 203 192 351 215 285 258 235 257 255 252 247 247 242 237 226 220 221 217 210 207 202 199 194 196 197 198 198 202 200 192 182 177 173 170 170
224 209 170 196 143 181 134 83 49 52 81 259 227 204 198 209 233 250 254 256 251 244 236 228 218 215 211 206 204 200 194 196 198 199 199 201 207 198 186 180 180 177 175 173
141 217 205 161 108 74 120 104 292 314 327 241 283 233 252 254 248 227 251 265 261 240 227 222 211 207 206 206 204 203 200 199 200 202 203 203 204 198 191 187 186 184 181 179
200 251 174 185 199 165 196 164 169 214 216 256 1 237 248 227 252 266 255 263 269 233 225 222 211 207 206 207 207 205 205 202 203 205 204 200 197 195 193 193 190 188 186 182
177 251 156 1 144 161 196 214 173 19 72 357 224 285 290 252 276 271 260 262 243 229 225 219 209 209 209 210 210 208 207 205 206 204 197 193 193 196 195 191 189 189 189 189
213 282 25 227 112 37 163 161 91 37 227 255 267 259 232 234 229 246 265 230 230 226 221 216 210 211 212 213 212 208 208 207 204 199 195 194 194 196 197 196 195 195 196 195
177 189 277 128 214 173 142 191 188 140 160 206 286 254 219 210 210 226 250 260 241 225 222 218 213 214 216 215 211 208 207 205 202 199 198 198 197 198 199 199 199 201 201 204
199 190 189 202 222 244 178 220 163 149 211 230 186 257 184 193 187 215 259 268 253 239 226 222 219 217 216 215 211 209 207 205 204 203 202 200 201 201 200 200 202 204 208 211
165 217 23 328 345 352 211 208 212 75 63 217 190 259 277 229 234 247 256 263 252 237 226 220 220 218 218 216 213 210 208 206 205 205 203 203 204 203 202 203 205 208 212 214
167 171 208 232 191 152 198 198 203 209 232 226 238 258 199 226 226 245 244 248 242 236 233 226 224 222 220 218 215 211 209 208 206 206 207 207 207 207 207 207 210 213 215 217
173 223 215 241 227 190 199 197 206 209 226 208 252 237 249 239 221 240 250 241 229 228 232 233 229 224 221 220 218 215 213 211 209 210 211 212 212 211 211 211 212 215 218 220
237 236 230 254 243 200 230 232 217 212 225 230 251 259 153 234 247 223 238 239 230 232 242 244 237 229 226 222 220 217 216 214 213 214 214 214 214 215 214 215 215 218 220 222
210 219 227 246 236 166 261 236 200 220 225 217 233 246 211 249 236 236 239 237 235 240 248 247 244 239 230 226 222 220 218 216 216 217 217 217 218 219 217 218 220 222 226 229
206 218 214 237 155 224 241 244 222 225 234 226 251 258 219 245 253 254 247 252 250 249 251 252 251 245 237 230 226 223 221 221 220 219 221 222 222 223 224 225 226 226 235 234
206 201 225 226 227 264 281 198 166 187 243 233 236 252 256 256 269 268 263 258 260 263 261 260 253 244 234 227 224 222 222 223 223 225 226 227 228 228 234 230 229 230 242 240
209 205 208 179 229 231 269 182 190 119 249 209 214 240 246 211 250 263 269 267 259 254 251 253 241 232 227 225 220 218 218 218 222 225 230 232 234 237 236 235 233 238 243 248
207 205 211 221 240 247 231 217 143 170 243 29 211 270 151 194 229 274 289 266 253 248 243 232 225 219 208 203 202 201 201 208 221 227 232 232 236 233 235 235 235 240 246 246
214 208 219 229 237 237 159 123 193 199 134 170 222 243 236 245 250 262 264 248 231 218 201 194 194 192 189 189 195 202 215 225 226 222 222 226 226 227 228 231 236 240 240 241
221 196 210 228 257 318 187 39 200 196 169 210 260 272 262 238 247 245 210 192 178 174 172 176 185 189 194 200 210 218 220 201 193 199 205 211 214 219 224 228 231 232 233 237
243 171 180 122 222 250 248 222 227 225 210 160 162 178 200 200 197 189 184 179 180 181 184 189 193 197 191 180 177 176 180 179 188 196 201 207 213 218 221 223 224 229 235 241
183 149 173 252 200 247 246 235 224 195 173 167 154 173 201 198 195 197 190 187 181 177 169 169 165 161 157 154 155 161 171 181 192 200 207 213 217 222 222 223 227 234 239 244
198 175 183 212 196 178 240 227 200 187 183 163 91 233 208 204 203 186 179 175 169 161 155 151 152 154 155 159 169 180 190 198 205 211 217 223 227 228 229 232 236 241 245 249